World > North America > United States > Georgia

Uvalda, Georgia Regional Weather

Lat: 32.04N, Lon: 82.51W
Wx Zone: GAZ112Web Search
Uvalda Weather Warning NWS WEATHER ALERT FOR THE UVALDA, GA AREA - Issued: 1159 AM EDT Sat Aug 15 2020 Uvalda Weather Warning  

Helpful Tip: Type the letters wx in the search engine next time you need to find us.

Feedback

Uvalda, GA Regional Weather

Expires:202008152100;;505021
ASUS42 KFFC 152003
RWRGA 
WEATHER ROUNDUP FOR GEORGIA
NATIONAL WEATHER SERVICE PEACHTREE CITY GA
400 PM EDT SAT AUG 15 2020

NOTE: "FAIR" INDICATES FEW OR NO CLOUDS BELOW 12,000 FEET WITH NO
SIGNIFICANT WEATHER AND/OR OBSTRUCTIONS TO VISIBILITY. 

* = USE WITH CAUTION. THE STATIONS MARKED WITH AN ASTERISK MAY NOT
REPORT WEATHER SUCH AS PRECIPITATION, FOG, OR THUNDER AND ARE NOT 
QUALITY CONTROLLED BY NWS.

THE REMARK "TC" DENOTES TEMPERATURE READING IN DEGREES CELSIUS.


GAZ099>101-110>166-152100-
SOUTH GEORGIA
  
CITY           SKY/WX    TMP DP  RH WIND       PRES   REMARKS
SAVANNAH       PTSUNNY   88  75  65 S13       29.85F HX  97           
VALDOSTA       PTSUNNY   88  75  65 S8        29.88F HX  97           
ALMA           PTSUNNY   91  71  51 SW10G20   29.86F HX  97           
ST SIMONS      LGT RAIN  80  76  87 SW5       29.88F                  
FT STEWART     PTSUNNY   87  76  71 S9        29.84F HX  97           
ALBANY         PTSUNNY   88  75  65 SW13      29.90F HX  97           
HUNTER AFB     PTSUNNY   86  74  66 S7        29.83F HX  93           
MOODY AFB      PTSUNNY   90  73  56 SW6       29.88F HX  98           
BRUNSWICK      MOSUNNY   80  74  84 S3        29.89S                  

  
CITY           SKY/WX    TMP DP  RH WIND       PRES   REMARKS
BAINBRIDGE*    PTSUNNY   88  74  62 W8        29.89F HX  96           
MOULTRIE*      PTSUNNY   88  72  58 SW7       29.90F HX  94           
VIDALIA*       MOSUNNY   91  68  46 W9        29.85F HX  95           
WAYCROSS*      CLOUDY    87  71  59 SW15G21   29.88R HX  92           
DOUGLAS*       MOSUNNY   90  71  54 W9        29.89S HX  96           
$$
  

SKY/WX - Weather  TMP - Temperature  DP - Dew Point  RH - Relative Humidity
WIND - Wind Direction/Speed PRES - Barometric Pressure VSB - Visibility
WCI - Wind Chill Index E13G22 Wind - East Wind 13 mph/Gusts of 22 mph
Uvalda Weather Map
UTC Time: 8/15/2020, 20:06
Your Time: